Regional Weather Roundup
Issued by NWS

Home | Current Version | Previous Version | Graphics & Text | Print | Product List | Glossary On
Versions: 1 2 3 4 5 6 7 8 9 10 11 12 13 14 15 16 17 18 19 20 21 22 23 24 25 26 27 28 29 30 31 32 33 34 35 36 37 38 39 40 41 42 43 44 45 46 47 48 49 50
992
ASUS43 KBIS 290302
RWRND

NORTH DAKOTA REGIONAL WEATHER ROUNDUP
NATIONAL WEATHER SERVICE BISMARCK ND
1000 PM CDT FRI APR 28 2017

NOTE: "FAIR" INDICATES FEW OR NO CLOUDS BELOW 12,000 FEET WITH NO
SIGNIFICANT WEATHER AND/OR OBSTRUCTIONS TO VISIBILITY.


NDZ001>003-009>011-017-290400-
NORTHWEST NORTH DAKOTA

CITY           SKY/WX    TMP DP  RH WIND       PRES   REMARKS
WILLISTON      MOCLDY    51  21  30 S3        30.13R
MINOT          FAIR      45  17  32 CALM      30.14R
MINOT AFB      CLEAR     42  31  64 CALM      30.13R
$$

NDZ018>021-031>035-040>046-290400-
SOUTHWEST NORTH DAKOTA

CITY           SKY/WX    TMP DP  RH WIND       PRES   REMARKS
BISMARCK       FAIR      49  18  29 NE5       30.16R
DICKINSON      FAIR      39  16  39 E7        30.14R
GARRISON         N/A     41  20  43 W7        30.15R
HETTINGER ARPT CLOUDY    38  20  48 CALM      30.17R
$$

NDZ004>008-012>016-024-026-027-054-290400-
NORTHEAST NORTH DAKOTA

CITY           SKY/WX    TMP DP  RH WIND       PRES   REMARKS
GRAND FORKS    CLEAR     38  29  70 N8        30.14R
GRND FRKS AFB  CLEAR     38  27  64 N5        30.15R
DEVILS LAKE    FAIR      43  22  43 E3        30.16R
$$

NDZ022-023-025-028>030-036>039-047>053-290400-
SOUTHEAST NORTH DAKOTA

CITY           SKY/WX    TMP DP  RH WIND       PRES   REMARKS
FARGO          CLOUDY    40  27  59 N7        30.13R
JAMESTOWN      FAIR      40  26  57 N3        30.14R
$$





USA.gov is the U.S. government's official web portal to all federal, state and local government web resources and services.